Weather in Pustynya

Russia / Arkhangel'skaya Oblast'     64°30′29″N   48°29′30″E
temp.,
°C
wind,
m/s
gust,
m/s
humid.,
%
clouds,
%
prec.,
mm/h
press.,
hPa
HPBL,
m
27 january, thu
thu2700:00−13ssw229976 0.1 101035
03:00−17ssw129965 0.1 101037
06:00−19s1210067 0.0 101036
09:00−20sse1310084 0.0 101049
12:00−15s259543 0.0 1009139
15:00−16sse259737 0.0 101092
18:00−16sse259780 0.0 101096
21:00−13sse2895100 0.0 1009207
28 january, fri
fri2800:00−13sse399493 0.0 1009259
03:00−14sse389598 0.0 1009215
06:00−14sse389656 0.0 1009212
09:00−16se2797100 0.0 1010154
12:00−11sse31192100 0.0 1010415
15:00−11sse41090100 0.0 1010436
18:00−12sse41192100 0.0 1010431
21:00−12sse41191100 0.0 1010483
29 january, sat
sat2900:00−12sse41192100 0.0 1010489
03:00−12sse41192100 0.0 1009458
06:00−13sse41092100 0.0 1009414
09:00−13sse41093100 0.2 1008440
12:00−11sse4119295 0.2 1008457
15:00−9sse41192100 0.3 1007561
18:00−7sse51291100 0.1 1005634
21:00−7sse41291100 0.2 1004644
30 january, sun
sun3000:00−8sse41092100 0.1 1003591
03:00−8sse41092100 0.3 1002521
06:00−9sse499398 0.1 1001453
09:00−9sse399496 0.3 1001399
12:00−9se3793100 0.1 1001406
15:00−10se3795100 0.2 1002243
18:00−15e119978 0.0 100311
21:00−15e1110081 0.1 100419
31 january, mon
mon3100:00−15ese139979 0.1 100449
03:00−16e1110080 0.1 100516
06:00−18e1110073 0.0 100520
09:00−18e2110064 0.0 100622
12:00−13e269455 0.0 1006168
15:00−14ene269752 0.0 100790
18:00−17e249960 0.0 100749
21:00−17e2399100 0.0 100659